Regional Weather Roundup
Issued by NWS

Home | Current Version | Previous Version | Text Only | Print | Product List | Glossary On
Versions: 1 2 3 4 5 6 7 8 9 10 11 12 13 14 15 16 17 18 19 20 21 22 23 24 25 26 27 28 29 30 31 32 33 34 35 36 37 38 39 40 41 42 43 44 45 46 47 48 49 50
000
ASUS42 KTBW 010517
RWRFL
FLORIDA REGIONAL WEATHER ROUNDUP
NATIONAL WEATHER SERVICE TAMPA BAY RUSKIN FL
100 AM EDT WED JUN 01 2016

NOTE: "FAIR" INDICATES FEW OR NO CLOUDS BELOW 12,000 FEET WITH NO
SIGNIFICANT WEATHER AND/OR OBSTRUCTIONS TO VISIBILITY.

FLZ001>010-012>015-112-114-115-010600-
PANHANDLE FLORIDA

CITY           SKY/WX    TMP DP  RH WIND       PRES   REMARKS
PENSACOLA      CLEAR     73  68  84 N3        29.95S
MILTON NAS     CLOUDY    70  70 100 CALM      29.96
CRESTVIEW      PTCLDY    69  67  93 CALM      29.98S FOG
DUKE FIELD     MOCLDY    70  68  94 E3        29.97S
VALPARAISO     PTCLDY    74  69  85 CALM      29.96S
MARY ESTHER    PTCLDY    73  69  87 NE2       29.95S
PANAMA CITY    FAIR      74  72  93 CALM      29.96S
TYNDALL AFB    PTCLDY    79  74  86 W8        29.97S
APALACHICOLA   CLEAR     73  73 100 NW3       29.97R

STATION/POSITION SKY/WX   TEMP    WIND        PRES    WAVE   SWELL
                          AIR SEA DIR/SP/G            HT/PER HT/PER
                          (F)     (DEG/KT/KT) (MB)    (FT/S) (FT/S)
30.1N   87.6W              82 83              1013.8S   1/ 3
29.2N   88.2W              80 81  220/  4/  6 1014.6R
28.8N   86.0W              80 82  260/  4/  6 1015.3S   1
PANAMA CITY BEAC           80 81  250/ 10/ 11 1015.1R
TOWER C                    79     280/  9/ 10 1015.4R
28.5N   84.5W              80 81  290/  4/  4 1014.7R   1

$$
FLZ011-016>038-118-127-128-134-139-239-010600-
NORTH FLORIDA

CITY           SKY/WX    TMP DP  RH WIND       PRES   REMARKS
MARIANNA       CLOUDY    74  69  85 SW5       29.95S
TALLAHASSEE    PTCLDY    73  68  84 CALM      29.96R
PERRY          PTCLDY    73  71  95 CALM      29.98R
LIVE OAK         N/A     70  70 100 CALM      29.99R
CROSS CITY       N/A     72  69  90 CALM      29.96R
LAKE CITY      FAIR      72  66  83 CALM      29.97R
GAINESVILLE    CLEAR     72  67  84 CALM      29.96R
WILLISTON      FAIR      73  72  94 SW3       29.97S
PALATKA        FAIR      72  72 100 CALM      29.96S
MAYPORT NAS    CLEAR     75  68  78 W3        29.95R
JACKSONVILLE   MOCLDY    72  69  90 W3        29.94S
JAX NAS        CLEAR     76  69  79 SW5       29.96R
JAX CECIL        N/A     66  64  94 CALM      29.96S
FERNANDINA BEA FAIR      77  73  88 E3        29.93S
ST AUGUSTINE   CLEAR     74  68  81 CALM      29.96S
PALM COAST     FAIR      73  71  92 CALM      29.96S

STATION/POSITION SKY/WX   TEMP    WIND        PRES    WAVE   SWELL
                          AIR SEA DIR/SP/G            HT/PER HT/PER
                          (F)     (DEG/KT/KT) (MB)    (FT/S) (FT/S)
SHELL POINT                79     270/  7/  9 1013.1
KEATON BEACH               80     270/  8/  9 1014.4R
CEDAR KEY                  80     280/  5/  6 1014.8F
FERNANDINA                 79 82   CALM  /  1 1014.0R
30.7N   81.3W                 80                N/A     2/ 8
MAYPORT                    77 81  220/  2/  2 1014.2F
31.4N   80.9W              77 77  160/  6/ 10 1014.2R   2/ 8   2/ 8
ST AUGUSTINE               76 80  200/  2/  3 1015.1S

$$
FLZ040-043>046-052-053-057-058-063-144-010600-
INTERIOR CENTRAL FLORIDA

CITY           SKY/WX    TMP DP  RH WIND       PRES   REMARKS
OCALA          CLEAR     72  66  83 S5        29.97S
THE VILLAGES     N/A     73  70  88 CALM      29.87F
LEESBURG       CLEAR     75  69  81 SW5       29.97F
SANFORD        PTCLDY    74  68  81 NW3       29.96F
ORLANDO EXEC   PTCLDY    75  72  90 CALM      29.97S
ORLANDO INTL   MOCLDY    73  70  90 CALM      29.97S
WINTER HAVEN   PTCLDY    74  71  91 SW6       29.98F
LAKELAND       CLEAR     70  68  94 CALM      29.98F
BARTOW         FAIR      70 N/A N/A CALM      29.98F
OKEECHOBEE     PTCLDY    70  70 100 CALM      29.98S

$$
FLZ041-047-054-059-064-141-147-010600-
EAST CENTRAL FLORIDA

CITY           SKY/WX    TMP DP  RH WIND       PRES   REMARKS
DAYTONA BEACH  MOCLDY    73  69  87 SW6       29.96S
DELAND           N/A     73  66  78 CALM      29.98S
JFK SPACE CTR  PTCLDY    77  70  80 SW2       29.96S
CAPE CANAVERAL PTCLDY    77  70  78 SW5       29.95F
PATRICK AFB    CLOUDY    78  71  79 SW2       29.96F
MELBOURNE      PTCLDY    75  70  84 CALM      29.97S
VERO BEACH     PTCLDY    74  70  87 NW3       29.98S
FT PIERCE      PTCLDY    72  71  97 CALM      29.97F
STUART         CLEAR     79  72  78 CALM      29.98F

STATION/POSITION SKY/WX   TEMP    WIND        PRES    WAVE   SWELL
                          AIR SEA DIR/SP/G            HT/PER HT/PER
                          (F)     (DEG/KT/KT) (MB)    (FT/S) (FT/S)
28.5N   80.2W              80 80  200/ 12/ 14 1014.8F
28.9N   78.5W              80 80  170/ 10/ 12 1014.9F
TRIDENT PIER               79 84  210/  4/  5 1014.8F
28.4N   80.5W                 82                N/A     2/ 8
27.5N   80.2W                 82                N/A     2/ 8

$$
FLZ050-056-061-142-242-148-248-149-249-151-251-155-255-
160-260-010600-
WEST CENTRAL FLORIDA

CITY           SKY/WX    TMP DP  RH WIND       PRES   REMARKS
CRYSTAL RIVER  FAIR      72  68  88 CALM      29.97F
INVERNESS      FAIR      70  70 100 CALM      29.98S
BROOKSVILLE    PTCLDY    72  69  90 CALM      29.99S
ZEPHYRHILLS    FAIR      66  63  89 CALM      29.98F
CLEARWATER AIR FAIR      77  68  73 CALM      29.97S
ST PETE CLEARW CLEAR     76  68  76 CALM      29.97F
TAMPA INTL     PTCLDY    78  69  73 CALM      29.98S
TAMPA EXEC     CLEAR     72  68  88 CALM      29.98F
PLANT CITY     CLEAR     73  70  88 CALM      29.99F
MACDILL AFB    CLEAR     74  70  86 N1        29.97F
PETER O KNIGHT CLEAR     79  72  78 CALM      29.98S
ST PETERSBURG  CLEAR     80  70  71 CALM      29.95F
SARASOTA       CLEAR     77  69  76 NE5       29.95F
VENICE         NOT AVBL

STATION/POSITION SKY/WX   TEMP    WIND        PRES    WAVE   SWELL
                          AIR SEA DIR/SP/G            HT/PER HT/PER
                          (F)     (DEG/KT/KT) (MB)    (FT/S) (FT/S)
27.3N   84.2W                 83                N/A     0
CLEARWATER BEACH           81 84   70/  4/  5 1015.1R
MIDDLE TAMPA BAY NOT AVBL
VENICE                     76 81   80/  2/  3 1014.3F

$$
FLZ066-069-070-075>078-162-262-165-265-010600-
SOUTHWEST FLORIDA AND KEYS

CITY           SKY/WX    TMP DP  RH WIND       PRES   REMARKS
PUNTA GORDA    CLEAR     74  71  91 NE5       29.98S
FT MYERS       CLEAR     76  69  79 SE5       29.96F
SOUTHWEST INTL CLEAR     74  69  85 S5        29.97S
NAPLES         CLEAR     77  69  76 CALM      29.96F
MARCO ISLAND   CLEAR     73  66  78 NE3       29.97F
MARATHON       PTCLDY    82  70  66 E5        29.95F
KEY WEST NAS   CLEAR     81  71  71 E9        29.95F
KEY WEST INTL  CLEAR     82  72  71 E9        29.95F

STATION/POSITION SKY/WX   TEMP    WIND        PRES    WAVE   SWELL
                          AIR SEA DIR/SP/G            HT/PER HT/PER
                          (F)     (DEG/KT/KT) (MB)    (FT/S) (FT/S)
NAPLES                        86              1014.7F
26.0N   85.6W              80 82  100/  6/  8 1015.1R   1
DRY TORTUGAS               82     120/  8/  9 1014.5F
SAND KEY                   82     110/ 11/ 14 1014.7F
LONG KEY                   82 87  130/ 11/ 13 1014.6F

$$
FLZ067-068-071>074-168-172>174-010600-
SOUTHEAST FLORIDA

CITY           SKY/WX    TMP DP  RH WIND       PRES   REMARKS
W PALM BEACH   PTCLDY    81  70  69 SE3       29.97F
FT LAUDER-EXEC CLEAR     78  70  76 CALM      29.96F
FT LAUDERDALE  PTCLDY    80  70  71 SE7       29.95F
POMPANO BEACH  PTCLDY    79  71  76 SE7       29.96F
PEMBROKE PINES CLEAR     76  70  82 SW5       29.97F
OPA LOCKA      PTCLDY    75  67  76 CALM      29.96F
MIAMI          MOCLDY    76  72  87 E5        29.96F
WEST KENDALL   PTCLDY    75  72  90 CALM      29.96F
HOMESTEAD      PTCLDY    78  71  79 E1        29.95F

STATION/POSITION SKY/WX   TEMP    WIND        PRES    WAVE   SWELL
                          AIR SEA DIR/SP/G            HT/PER HT/PER
                          (F)     (DEG/KT/KT) (MB)    (FT/S) (FT/S)
PORT EVERGLADES            82     130/  5/  8 1014.9S
VIRGINIA KEY               82 84  110/  7/ 10 1015.1F
LAKE WORTH                 81 83  140/  9/ 10 1014.8F
FOWEY ROCKS                81 83  120/ 11/ 11 1014.8F
SETTLEMENT POINT           79     140/  7/  9 1015.3F

$$




USA.gov is the U.S. government's official web portal to all federal, state and local government web resources and services.